Flight Track Log - Related Links

Times and Time Zones

All times are in EDT time to prevent confusion due to time zone crossing. See the FSR411 flight status page for this flight to view local times or setup timezone preferences in your user account.

Time Position Orientation Groundspeed Altitude Reporting Facility
EDT Latitude Longitude Course Direction KTS MPH feet Rate Location/Type
Wed 05:03:45 PM 37.0217 -86.3783 23° Northeast 224 258 2,800  Level Indianapolis Center
Wed 05:04:47 PM 37.0903 -86.3425 23° Northeast 263 303 4,100 2,081 Climbing Indianapolis Center
Wed 05:05:49 PM 37.1603 -86.3342 North 249 287 7,100 3,145 Climbing Indianapolis Center
Wed 05:06:51 PM 37.2439 -86.2903 23° Northeast 286 329 10,600 3,194 Climbing Indianapolis Center
Wed 05:07:53 PM 37.3272 -86.2406 25° Northeast 326 375 13,700 2,952 Climbing Indianapolis Center
Wed 05:08:55 PM 37.4228 -86.1828 26° Northeast 371 427 16,700 3,000 Climbing Indianapolis Center
Wed 05:09:57 PM 37.5261 -86.1225 25° Northeast 400 460 19,900 2,516 Climbing Indianapolis Center
Wed 05:10:59 PM 37.6286 -86.0636 24° Northeast 419 482 21,900 1,742 Climbing Indianapolis Center
Wed 05:12:01 PM 37.7372 -85.9975 26° Northeast 430 495 23,500 1,984 Climbing Indianapolis Center
Wed 05:13:03 PM 37.8706 -85.9178 25° Northeast 440 506 26,000 2,177 Climbing Indianapolis Center
Wed 05:14:05 PM 37.9814 -85.8511 25° Northeast 442 509 28,000 1,742 Climbing Indianapolis Center
Wed 05:15:07 PM 38.0928 -85.7833 26° Northeast 443 510 29,600 1,500 Climbing Indianapolis Center
Wed 05:16:09 PM 38.2022 -85.7169 25° Northeast 439 505 31,100 1,452 Climbing Indianapolis Center
Wed 05:17:11 PM 38.3122 -85.6506 25° Northeast 437 503 32,600 1,306 Climbing Indianapolis Center
Wed 05:18:13 PM 38.4208 -85.5850 25° Northeast 433 498 33,800 1,104 Climbing Indianapolis Center
Wed 05:19:16 PM 38.5503 -85.5036 26° Northeast 432 497 34,900 576 Climbing Indianapolis Center
Wed 05:20:18 PM 38.6475 -85.4453 25° Northeast 439 505 35,000 48 Climbing Indianapolis Center
Wed 05:21:20 PM 38.7806 -85.3639 25° Northeast 444 511 35,000  Level Indianapolis Center
Wed 05:22:22 PM 38.8903 -85.2953 26° Northeast 441 507 35,000 -97 Level Indianapolis Center
Wed 05:23:24 PM 38.9978 -85.2219 28° Northeast 442 509 34,800 -484 Descending Indianapolis Center
Wed 05:24:26 PM 39.0978 -85.1258 37° Northeast 449 517 34,000 -871 Descending Indianapolis Center
Wed 05:25:28 PM 39.1978 -85.0292 37° Northeast 452 520 33,000 -1,065 Descending Indianapolis Center
Wed 05:26:30 PM 39.3244 -84.9225 33° Northeast 451 519 31,800 -1,016 Descending Indianapolis Center
Wed 05:27:32 PM 39.4314 -84.8586 25° Northeast 446 513 30,900 -871 Descending Indianapolis Center
Wed 05:28:34 PM 39.5472 -84.7917 24° Northeast 451 519 30,000 -919 Descending Indianapolis Center
Wed 05:29:36 PM 39.6642 -84.7239 24° Northeast 457 526 29,000 -484 Descending Indianapolis Center
Wed 05:30:38 PM 39.7808 -84.6544 25° Northeast 460 529 29,000  Level Indianapolis Center
Wed 05:31:40 PM 39.9225 -84.5706 24° Northeast 463 533 29,000  Level Indianapolis Center
Wed 05:32:42 PM 40.0414 -84.5003 24° Northeast 464 534 29,000 -435 Level Indianapolis Center
Wed 05:33:44 PM 40.1581 -84.4300 25° Northeast 463 533 28,100 -912 Descending Indianapolis Center
Wed 05:34:47 PM 40.2758 -84.3594 25° Northeast 463 533 27,100 -1,296 Descending Indianapolis Center
Wed 05:35:49 PM 40.3928 -84.2883 25° Northeast 461 531 25,400 -1,742 Descending Indianapolis Center
Wed 05:36:51 PM 40.5100 -84.2186 24° Northeast 461 531 23,500 -2,081 Descending Indianapolis Center
Wed 05:37:53 PM 40.6422 -84.1372 25° Northeast 438 504 21,100 -1,210 Descending Indianapolis Center
Wed 05:38:55 PM 40.7469 -84.0725 25° Northeast 420 483 21,000 -48 Descending Indianapolis Center
Wed 05:39:57 PM 40.8506 -84.0106 24° Northeast 410 472 21,000 -290 Level Indianapolis Center
Wed 05:40:59 PM 40.9556 -83.9442 26° Northeast 416 479 20,400 -677 Descending Indianapolis Center
Wed 05:42:01 PM 41.0597 -83.8819 24° Northeast 417 480 19,600 -968 Descending Indianapolis Center
Wed 05:43:03 PM 41.1819 -83.8050 25° Northeast 413 475 18,400 -1,022 Descending Indianapolis Center
Wed 05:44:16 PM 41.2844 -83.7139 34° Northeast 398 458 17,300 -971 Descending Cleveland Center
Wed 05:45:19 PM 41.3481 -83.6017 53° Northeast 382 440 16,200 -1,104 Descending Cleveland Center
Wed 05:46:21 PM 41.4119 -83.4892 53° Northeast 383 441 15,000 -1,355 Descending Cleveland Center
Wed 05:46:52 PM 41.4536 -83.4208 51° Northeast 381 438 14,100 -1,742 Descending Cleveland Center
Wed 05:47:23 PM 41.4878 -83.3617 52° Northeast 374 430 13,200 -1,696 Descending Cleveland Center
Wed 05:48:24 PM 41.5506 -83.2533 52° Northeast 367 422 11,500 -1,645 Descending Cleveland Center
Wed 05:48:25 PM 41.5511 -83.2508 73° East 369 425 11,500 -1,238 Level Cleveland Center
Wed 05:49:27 PM 41.6061 -83.1536 53° Northeast 365 420 10,200 -1,364 Descending Cleveland Center
Wed 05:49:31 PM 41.6208 -83.1317 48° Northeast 356 410 10,000 -554 Descending Cleveland Center
Wed 05:50:32 PM 41.6889 -83.0628 37° Northeast 299 344 9,600 -984 Descending Cleveland Center
Wed 05:51:33 PM 41.7650 -83.0256 20° North 287 330 8,000 -1,475 Descending Cleveland Center
Wed 05:52:34 PM 41.8411 -82.9908 19° North 271 312 6,600 -1,328 Descending Cleveland Center
Wed 05:53:35 PM 41.9164 -82.9800 North 275 316 5,300 -1,343 Descending Cleveland Center
Wed 05:53:41 PM 41.9256 -82.9797 North 279 321 5,100 -295 Descending Cleveland Center
Wed 05:54:36 PM 41.9953 -82.9722 North 273 314 5,000 -107 Descending Cleveland Center
Wed 05:54:37 PM 41.9919 -82.9711 166° South 275 316 5,000 -590 Level Cleveland Center
Wed 05:55:37 PM 42.0692 -82.9653 North 268 308 4,400 -581 Descending Cleveland Center
Wed 05:55:39 PM 42.0658 -82.9631 154° Southeast 271 312 4,400 -375 Level Cleveland Center
Wed 05:56:41 PM 42.1389 -82.9567 North 266 306 4,000 -364 Descending Cleveland Center
Wed 05:56:45 PM 42.1533 -82.9597 351° North 246 283 4,000 -476 Level Cleveland Center
Wed 05:57:44 PM 42.2047 -82.9594 360° North 251 289 3,500 -787 Descending Cleveland Center
Wed 05:57:46 PM 42.2181 -82.9631 349° North 234 269 3,200 -484 Descending Cleveland Center
Wed 05:58:46 PM 42.2736 -82.9878 342° North 231 266 3,000 -197 Descending Cleveland Center
Wed 05:58:47 PM 42.2789 -82.9908 337° Northwest 219 252 3,000  Level Cleveland Center
Wed 05:59:42 PM 42.3261 -83.0311 328° Northwest 219 252 3,000  Level Cleveland Center
Wed 05:59:48 PM 42.3244 -83.0289 135° Southeast 217 250 3,000 -706 Level Cleveland Center
Wed 06:00:50 PM 42.3747 -83.0686 330° Northwest 213 245 2,200 -462 Descending Cleveland Center
Wed 06:01:45 PM 42.4192 -83.1003 332° Northwest 152 175 2,100 -97 Descending Cleveland Center
Wed 06:01:52 PM 42.4161 -83.1008 188° South 191 220 2,100 -590 Level Cleveland Center
Wed 06:02:46 PM 42.4408 -83.0639 48° Northeast 139 160 1,500 -571 Descending Cleveland Center
Wed 06:02:55 PM 42.4400 -83.0625 129° Southeast 163 188 1,500 -592 Level Cleveland Center
Wed 06:03:57 PM 42.4231 -83.0231 120° Southeast 140 161 800 -677 Descending Cleveland Center
Wed 06:05:00 PM 42.4093 -83.0102 103° East  Level Estimated
Wed 06:12:00 PM 42.4093 -83.0102 103° East  Level Estimated

Login

Don't have an account? Register now (free) for customized features, flight alerts, and more!